Tracking 19651 objects as of 22-Apr-2019
HD Live streaming from Space Station
objects crossing your sky now

CSUNSAT1

Track CSUNSAT1 now!
10-day predictions
CSUNSAT1 is classified as:


NORAD ID: 42715
Int'l Code: 1998-067LW
Perigee: 254.5 km
Apogee: 268.1 km
Inclination: 51.6 °
Period: 89.6 minutes
Semi major axis: 6632 km
RCS: Unknown
Launch date: November 20, 1998
Source: United States (US)
Launch site: TYURATAM MISSILE AND SPACE COMPLEX (TTMTR)

Uplink (MHz):
Downlink (MHz): 437.400
Beacon (MHz): 437.400
Mode: 9600bps GMSK CW
Call sign: CSUNSAT1
Status: Inactive

aabbcc
Your satellite tracking list
Your tracking list is empty




NASA's NSSDC Master Catalog

Two Line Element Set (TLE):
1 42715U 98067LW  19112.46847764  .00377977  78951-4  46162-3 0  9995
2 42715  51.6215 197.8900 0010257 344.9554  15.1152 16.07346856110412
Source of the keplerian elements: AFSPC